EW5647 Weather Reports


time (UTC)temp
C
wind
direction
speed
KPH
gust
KPH
rain 1hr
cm
rain 24hr
cm
rain mn
cm
humidity
%
barometer
mb
20260506124447 8 317 0.0 1.6 0.13 1.40 1.40 99 1009.1
20260506123945 8 323 0.0 1.6 0.00 1.37 1.37 99 1009.0
20260506123443 8 326 0.0 0.0 0.18 1.37 1.37 99 1009.3
20260506122940 8 318 0.0 0.0 0.18 1.37 1.37 99 1009.3
20260506122437 8 308 0.0 1.6 0.13 1.35 1.35 99 1009.4
20260506121935 8 300 0.0 0.0 0.13 1.35 1.35 99 1009.6
20260506121432 8 300 0.0 0.0 0.18 1.32 1.32 99 1009.2
20260506120929 8 300 0.0 0.0 0.18 1.32 1.32 99 1009.4
20260506120426 8 300 0.0 0.0 0.18 1.32 1.32 99 1009.3
20260506115923 7 297 0.0 0.0 0.13 1.30 1.30 99 1009.0
20260506115421 7 341 0.0 0.0 0.13 1.30 1.30 99 1009.4
20260506114919 7 316 0.0 0.0 0.18 1.27 1.27 99 1009.7
20260506114417 7 310 1.6 1.6 0.18 1.27 1.27 99 1009.8
20260506113915 7 328 1.6 1.6 0.00 1.24 1.24 99 1009.1
20260506113412 7 302 1.6 1.6 0.13 1.24 1.24 99 1009.1
20260506112909 7 316 0.0 0.0 0.13 1.24 1.24 99 1009.3
20260506112407 7 50 1.6 3.2 0.18 1.22 1.22 99 1009.1
20260506111904 7 284 0.0 0.0 0.30 1.22 1.22 99 1008.6
20260506111402 7 313 1.6 1.6 0.13 1.19 1.19 99 1008.7
20260506110859 7 41 1.6 1.6 0.30 1.19 1.19 99 1008.2
20260506110356 7 320 0.0 0.0 0.18 1.17 1.17 99 1008.3
20260506105853 7 66 3.2 8.0 0.18 1.14 1.14 99 1007.8
20260506105349 7 325 0.0 0.0 0.30 1.14 1.14 99 1008.1
20260506104847 7 293 0.0 0.0 0.13 1.12 1.12 99 1008.0
20260506104344 7 318 1.6 1.6 0.30 1.12 1.12 99 1008.2
20260506103836 7 296 0.0 1.6 0.18 1.09 1.09 99 1008.2
20260506103333 7 253 0.0 1.6 0.13 1.07 1.07 99 1008.4
20260506102831 7 292 0.0 0.0 0.30 1.07 1.07 99 1008.5
20260506102328 7 290 0.0 1.6 0.18 1.04 1.04 99 1008.5
20260506101826 7 296 0.0 0.0 0.13 1.02 1.02 99 1008.5
20260506101321 7 295 0.0 0.0 0.30 1.02 1.02 99 1008.2
20260506100820 7 302 0.0 1.6 0.18 0.99 0.99 99 1008.3
20260506100318 7 281 1.6 1.6 0.18 0.99 0.99 99 1008.3
20260506095816 7 310 0.0 1.6 0.13 0.97 0.97 99 1008.5
20260506095313 7 312 0.0 1.6 0.18 0.94 0.94 99 1008.4
20260506094809 7 300 1.6 1.6 0.18 0.94 0.94 99 1008.1
20260506094308 7 289 1.6 1.6 0.13 0.91 0.91 99 1008.2
20260506093806 8 320 1.6 1.6 0.13 0.91 0.91 99 1007.9
20260506093302 7 255 0.0 1.6 0.18 0.89 0.89 99 1008.0
20260506092800 8 333 0.0 0.0 0.18 0.89 0.89 99 1007.9
20260506092258 8 303 0.0 1.6 0.18 0.86 0.86 99 1008.3
20260506091755 8 321 1.6 1.6 0.30 0.86 0.86 99 1008.1
20260506091252 8 318 0.0 0.0 0.30 0.84 0.84 99 1007.9
20260506090750 8 343 1.6 1.6 0.18 0.81 0.81 99 1008.1
20260506090247 8 343 0.0 0.0 0.30 0.81 0.81 99 1008.1
20260506085744 8 298 1.6 1.6 0.30 0.79 0.79 99 1008.3
20260506085240 8 337 1.6 1.6 0.18 0.76 0.76 99 1008.1
20260506084736 8 84 0.0 1.6 0.13 0.74 0.74 99 1008.1
20260506084233 8 329 0.0 1.6 0.30 0.74 0.74 99 1008.4
20260506083730 8 317 1.6 1.6 0.18 0.71 0.71 99 1008.1
20260506083228 8 309 1.6 1.6 0.13 0.69 0.69 99 1008.0
20260506082725 8 312 1.6 1.6 0.30 0.69 0.69 99 1008.2
20260506082220 8 312 1.6 1.6 0.18 0.66 0.66 99 1007.9
20260506081718 8 314 0.0 0.0 0.13 0.64 0.64 99 1007.6
20260506081215 9 16 0.0 1.6 0.13 0.64 0.64 99 1007.6
20260506080713 9 314 1.6 3.2 0.18 0.61 0.61 99 1007.7
20260506080209 9 315 1.6 1.6 0.18 0.61 0.61 99 1007.8
20260506073148 10 14 0.0 0.0 0.30 0.53 0.53 99 1007.4
20260506072644 10 14 0.0 0.0 0.13 0.51 0.51 99 1007.5
20260506072142 10 14 0.0 0.0 0.18 0.48 0.48 99 1007.5
20260506071640 10 14 0.0 0.0 0.30 0.48 0.48 99 1007.7
20260506071137 10 14 0.0 0.0 0.13 0.46 0.46 99 1007.7
20260506070634 10 26 0.0 0.0 0.18 0.43 0.43 99 1007.7
20260506070131 10 24 0.0 0.0 0.30 0.43 0.43 99 1007.8
20260506062108 10 27 0.0 0.0 0.18 0.33 0.33 99 1008.3
20260506061604 10 27 0.0 0.0 0.13 0.30 0.30 99 1008.2
20260506061102 10 27 0.0 0.0 0.13 0.30 0.30 99 1008.4
20260506060600 10 27 0.0 0.0 0.00 0.28 0.28 99 1008.3
20260506051023 10 15 0.0 0.0 0.13 0.18 0.18 99 1009.2
20260506050521 10 15 0.0 0.0 0.18 0.15 0.15 99 1009.2
20260506045011 10 16 0.0 0.0 0.13 0.13 0.13 99 1009.1
20260506044509 10 16 0.0 0.0 0.18 0.10 0.10 99 1009.3
20260506044006 10 16 0.0 0.0 0.18 0.10 0.10 99 1009.1
20260506043503 10 16 0.0 0.0 0.13 0.08 0.08 99 1009.3
20260506043001 10 17 0.0 0.0 0.13 0.08 0.08 99 1009.4
20260506042500 10 347 0.0 0.0 0.18 0.05 0.05 99 1009.7
20260506041957 10 332 1.6 1.6 0.18 0.05 0.05 99 1009.8
20260506041456 10 344 0.0 1.6 0.13 0.03 0.03 99 1009.9
20260506040953 10 331 1.6 1.6 0.13 0.03 0.03 99 1009.8
20260506040450 10 332 0.0 1.6 0.30 0.03 0.03 99 1009.7
20260506035946 10 332 0.0 0.0 0.30 1.27 1.27 99 1009.8
20260506035443 10 332 0.0 0.0 0.30 1.24 1.24 99 1009.8
20260506034940 11 303 0.0 1.6 0.18 1.22 1.22 99 1009.9
20260506034438 10 299 1.6 3.2 0.30 1.22 1.22 99 1009.9
20260506033934 10 14 0.0 0.0 0.30 1.19 1.19 99 1009.6
20260506033432 10 14 0.0 0.0 0.18 1.14 1.14 99 1009.4
20260506032928 11 14 0.0 0.0 0.30 1.14 1.14 99 1009.3
20260506032425 11 14 0.0 0.0 0.13 1.12 1.12 99 1009.3
20260506031922 11 14 0.0 0.0 0.18 1.09 1.09 99 1009.4
20260506031419 10 14 0.0 0.0 0.18 1.09 1.09 99 1009.1
20260506030917 10 14 0.0 0.0 0.00 1.07 1.07 99 1009.2
20260506030415 10 14 0.0 0.0 0.13 1.07 1.07 99 1009.0
20260506025911 10 14 0.0 0.0 0.30 1.07 1.07 99 1009.1
20260506025408 10 14 0.0 0.0 0.30 1.04 1.04 99 1009.1
20260506024905 10 15 1.6 1.6 0.30 1.02 1.02 99 1009.4
20260506024402 10 14 0.0 0.0 0.30 0.99 0.99 99 1009.3
20260506023858 10 14 0.0 0.0 0.30 0.99 0.99 99 1009.3
20260506023355 10 14 0.0 0.0 0.18 0.94 0.94 99 1009.6
20260506022851 10 15 0.0 0.0 0.30 0.94 0.94 99 1009.4
20260506022349 10 14 0.0 0.0 0.30 0.91 0.91 99 1009.6
20260506021847 10 14 0.0 0.0 0.36 0.89 0.89 99 1009.3
20260506021344 10 15 0.0 0.0 0.30 0.86 0.86 99 1009.4
20260506020840 10 14 0.0 0.0 0.30 0.84 0.84 99 1009.6
20260506020338 10 15 0.0 0.0 0.18 0.81 0.81 99 1009.4
20260506015836 10 15 1.6 1.6 0.13 0.79 0.79 99 1009.6
20260506015333 10 14 0.0 0.0 0.13 0.79 0.79 99 1009.4
20260506014829 10 14 0.0 0.0 0.18 0.76 0.76 99 1009.3
20260506014327 10 14 0.0 0.0 0.18 0.76 0.76 99 1009.9
20260506013823 10 14 0.0 0.0 0.13 0.74 0.74 99 1009.6
20260506013321 10 14 0.0 0.0 0.30 0.74 0.74 99 1009.1
20260506012817 10 14 0.0 0.0 0.30 0.71 0.71 99 1009.3
20260506012314 10 15 0.0 0.0 0.30 0.69 0.69 99 1009.3
20260506011811 10 15 1.6 1.6 0.48 0.66 0.66 99 1009.6
20260506011308 10 14 0.0 0.0 0.43 0.64 0.64 98 1009.6
20260506010806 10 4 0.0 0.0 0.48 0.58 0.58 98 1009.3
20260506010303 10 15 0.0 1.6 0.66 0.56 0.56 98 1009.4
20260506005800 10 22 3.2 3.2 0.61 0.51 0.51 98 1009.4
20260506005256 11 306 0.0 0.0 0.43 0.46 0.46 98 1009.7
20260506004752 11 308 4.8 4.8 0.48 0.43 0.43 98 1009.8
20260506004251 11 306 3.2 4.8 0.48 0.38 0.38 98 1009.8
20260506003746 12 271 4.8 8.0 0.30 0.33 0.33 98 1010.0
20260506003243 13 321 1.6 3.2 0.13 0.30 0.30 98 1009.7
20260506002739 13 16 0.0 1.6 0.00 0.28 0.28 98 1009.2
20260506002235 13 16 0.0 1.6 0.00 0.28 0.28 98 1009.0
20260506001731 13 16 0.0 0.0 0.00 0.28 0.28 98 1008.6
20260506001229 13 346 0.0 1.6 0.00 0.28 0.28 98 1008.6
20260506000725 13 304 0.0 0.0 0.00 0.28 0.28 98 1008.5
20260506000223 13 294 0.0 0.0 0.18 0.28 0.28 98 1008.7
20260505235720 13 16 0.0 0.0 0.18 0.28 0.28 98 1008.7
20260505235218 14 16 0.0 0.0 0.00 0.25 0.25 98 1008.3
20260505234715 14 242 1.6 3.2 0.00 0.25 0.25 98 1008.6
20260505234212 14 319 0.0 1.6 0.00 0.25 0.25 98 1008.7
20260505233708 14 346 1.6 1.6 0.00 0.25 0.25 98 1008.6
20260505233206 14 313 0.0 0.0 0.00 0.25 0.25 98 1008.9
20260505232703 14 313 0.0 0.0 0.00 0.25 0.25 98 1008.3
20260505232201 14 318 0.0 0.0 0.00 0.25 0.25 98 1008.2
20260505231657 15 311 0.0 0.0 0.00 0.25 0.25 98 1008.6
20260505231156 15 353 0.0 0.0 0.00 0.25 0.25 98 1008.7
20260505230654 15 354 0.0 0.0 0.00 0.25 0.25 98 1008.9
20260505230150 15 356 0.0 0.0 0.00 0.25 0.25 97 1008.8
20260505225646 15 2 0.0 0.0 0.00 0.25 0.25 97 1008.7
20260505225142 15 2 0.0 0.0 0.00 0.25 0.25 97 1008.9
20260505224634 15 325 0.0 0.0 0.00 0.25 0.25 97 1008.7
20260505224132 15 325 0.0 0.0 0.00 0.25 0.25 97 1008.9
20260505223629 15 326 0.0 0.0 0.00 0.25 0.25 97 1008.7
20260505223125 15 326 0.0 0.0 0.00 0.25 0.25 97 1008.8
20260505222621 15 326 0.0 0.0 0.00 0.25 0.25 96 1008.7
20260505222117 15 313 0.0 0.0 0.00 0.25 0.25 96 1008.8
20260505221614 15 313 0.0 1.6 0.00 0.25 0.25 96 1008.6
20260505221111 15 19 0.0 0.0 0.00 0.25 0.25 96 1008.7
20260505220608 15 19 1.6 1.6 0.00 0.25 0.25 95 1008.6
20260505220106 15 19 0.0 0.0 0.00 0.25 0.25 95 1008.7
20260505215604 15 19 0.0 0.0 0.00 0.25 0.25 94 1008.9
20260505215101 15 19 0.0 0.0 0.13 0.25 0.25 94 1009.1
20260505214559 15 19 0.0 0.0 0.48 0.25 0.25 93 1009.1
20260505214056 15 19 0.0 0.0 0.61 0.25 0.25 92 1009.4
20260505213554 16 19 0.0 0.0 0.61 0.18 0.18 91 1009.7
20260505213050 16 19 0.0 0.0 0.43 0.13 0.13 88 1009.4
20260505212546 17 19 1.6 1.6 0.13 0.08 0.08 83 1009.0
20260505212044 18 19 0.0 0.0 0.00 0.05 0.05 78 1008.7
20260505211540 18 19 0.0 0.0 0.00 0.05 0.05 75 1008.4
20260505211037 18 19 0.0 0.0 0.00 0.05 0.05 75 1008.4
20260505210534 18 19 0.0 0.0 0.00 0.05 0.05 76 1008.4
20260505210031 18 19 0.0 0.0 0.00 0.05 0.05 75 1008.3
20260505205529 18 19 1.6 1.6 0.00 0.05 0.05 73 1008.5
20260505205026 18 19 0.0 0.0 0.00 0.05 0.05 72 1008.5
20260505204524 18 19 1.6 1.6 0.00 0.05 0.05 72 1008.6
20260505204021 18 19 1.6 1.6 0.00 0.05 0.05 69 1008.4
20260505203517 19 18 1.6 1.6 0.00 0.05 0.05 71 1008.6
20260505203014 19 331 0.0 0.0 0.00 0.05 0.05 69 1008.7
20260505202510 20 320 1.6 3.2 0.00 0.05 0.05 68 1008.4
20260505202006 20 320 1.6 1.6 0.00 0.05 0.05 66 1008.8
20260505201504 20 320 1.6 1.6 0.00 0.05 0.05 69 1008.7
20260505201001 20 320 0.0 0.0 0.00 0.05 0.05 67 1008.6
20260505200459 20 320 0.0 0.0 0.00 0.05 0.05 67 1008.6
20260505195954 20 340 1.6 3.2 0.00 0.05 0.05 67 1008.6
20260505195451 20 341 0.0 0.0 0.00 0.05 0.05 65 1008.7
20260505194949 20 23 1.6 1.6 0.00 0.05 0.05 66 1008.8
20260505194446 20 294 0.0 1.6 0.00 0.05 0.05 65 1008.7
20260505193946 20 263 1.6 3.2 0.00 0.05 0.05 65 1009.0
20260505193444 20 268 3.2 3.2 0.00 0.05 0.05 65 1009.1
20260505192941 20 266 1.6 3.2 0.00 0.05 0.05 67 1009.1
20260505192440 20 262 0.0 0.0 0.00 0.05 0.05 65 1009.0
20260505191937 19 262 1.6 1.6 0.00 0.05 0.05 68 1009.1
20260505191436 20 261 3.2 3.2 0.00 0.05 0.05 67 1008.8
20260505190932 20 239 1.6 1.6 0.00 0.05 0.05 64 1009.1
20260505190427 20 237 1.6 3.2 0.00 0.05 0.05 64 1008.9
20260505185922 20 236 1.6 1.6 0.00 0.05 0.05 65 1008.7
20260505185420 20 231 0.0 1.6 0.00 0.05 0.05 65 1008.8
20260505184917 20 230 1.6 1.6 0.00 0.05 0.05 64 1008.9
20260505184413 20 230 0.0 0.0 0.00 0.05 0.05 62 1008.6
20260505183910 21 234 4.8 8.0 0.00 0.05 0.05 61 1008.7
20260505183407 21 195 1.6 3.2 0.00 0.05 0.05 62 1008.5
20260505182904 21 202 3.2 3.2 0.00 0.05 0.05 60 1008.8
20260505182400 21 241 1.6 1.6 0.00 0.05 0.05 60 1009.0
20260505181857 21 253 3.2 3.2 0.00 0.05 0.05 62 1008.8
20260505181355 21 247 0.0 0.0 0.00 0.05 0.05 63 1008.6
20260505180851 21 245 1.6 1.6 0.00 0.05 0.05 65 1008.9
20260505180347 20 249 1.6 3.2 0.00 0.05 0.05 61 1008.8
20260505175844 20 260 1.6 3.2 0.00 0.05 0.05 62 1008.7
20260505175340 20 263 1.6 1.6 0.00 0.05 0.05 62 1008.7
20260505174837 20 284 1.6 1.6 0.00 0.05 0.05 63 1008.6
20260505174335 20 284 1.6 3.2 0.00 0.05 0.05 62 1008.6
20260505173830 20 284 0.0 0.0 0.00 0.05 0.05 63 1008.5
20260505173327 20 263 3.2 4.8 0.00 0.05 0.05 62 1008.7
20260505172825 20 275 6.4 9.7 0.00 0.05 0.05 62 1008.5
20260505172322 20 209 4.8 4.8 0.00 0.05 0.05 63 1008.7
20260505171821 21 200 4.8 8.0 0.00 0.05 0.05 61 1008.5
20260505171319 21 193 1.6 3.2 0.00 0.05 0.05 62 1008.5
20260505170815 21 190 1.6 1.6 0.00 0.05 0.05 59 1008.7
20260505170312 21 186 1.6 1.6 0.00 0.05 0.05 61 1008.6
20260505165807 21 203 3.2 4.8 0.00 0.05 0.05 60 1008.4
20260505165306 21 196 4.8 4.8 0.00 0.05 0.05 60 1008.6
20260505164759 22 178 1.6 1.6 0.00 0.05 0.05 58 1008.6
20260505164256 21 174 4.8 4.8 0.00 0.05 0.05 61 1008.7
20260505163754 21 170 1.6 1.6 0.00 0.05 0.05 64 1008.6
20260505163253 21 202 3.2 3.2 0.00 0.05 0.05 60 1008.6
20260505162750 21 198 4.8 8.0 0.00 0.05 0.05 61 1008.4
20260505162247 21 213 1.6 3.2 0.00 0.05 0.05 65 1008.5
20260505161744 20 202 1.6 3.2 0.00 0.05 0.05 61 1008.4
20260505161241 20 212 3.2 3.2 0.00 0.05 0.05 68 1008.4
20260505160738 20 234 3.2 3.2 0.00 0.05 0.05 67 1008.6
20260505160236 20 214 4.8 4.8 0.00 0.05 0.05 66 1008.8
20260505153215 20 232 1.6 3.2 0.00 0.05 0.05 67 1008.8
20260505152712 20 248 1.6 3.2 0.00 0.05 0.05 67 1008.9
20260505152208 20 190 1.6 4.8 0.00 0.05 0.05 70 1008.7
20260505151703 20 194 8.0 11.3 0.00 0.05 0.05 67 1008.7
20260505151200 20 192 4.8 8.0 0.00 0.05 0.05 68 1008.6
20260505150656 20 216 3.2 4.8 0.00 0.05 0.05 71 1008.7
20260505150154 20 210 4.8 4.8 0.00 0.05 0.05 68 1008.5
20260505140622 16 222 3.2 3.2 0.00 0.05 0.05 78 1008.1
20260505140119 16 214 1.6 3.2 0.00 0.05 0.05 79 1008.3
20260505125030 17 219 1.6 1.6 0.00 0.00 0.00 73 1008.5